Flag for Switzerland Weather past 2 weeks in Pratteln, Basel-Land, Switzerland

Now
91 °F

Passing clouds.


Feels Like: 91 °F
Forecast: 65 / 92 °F
Wind: 6 mph from East

Location: Bale-Mulhouse

Current Time: Jul 3, 2015 at 1:40:57 PM

Latest Report: Jul 3, 2015 at 1:00 PM


Visibility: N/A

Pressure: 30.21 "Hg

Humidity: 34%

Dew point: 59 °F

Location of PrattelnLocation

Historic Weather in Pratteln — Graph

°F

Pratteln temperature yesterday

Maximum temperature yesterday: 97 °F (at 3:30 PM)
Minimum temperature yesterday: 66 °F (at 4:30 AM)
Average temperature yesterday: 83 °F

Past Weeks' High & Low Weather Summary

 TemperatureHumidityPressure
High97 °F (Jul 2, 3:30 PM)100% (Jun 20, 8:00 AM)30.24 "Hg (Jun 20, 8:00 AM)
Low45 °F (Jun 24, 4:30 AM)26% (Jun 26, 3:00 PM)29.74 "Hg (Jun 22, 9:00 PM)
Average67 °F69%30.11 "Hg
* Reported Jun 18 12:00 Noon — Jul 3 12:30 PM, Pratteln, Weather by CustomWeather, © 2015

Note: Actual official high and low records may vary slightly from our data, if they occured in-between our weather recording intervals... More about our weather records

Advertising

Pratteln weather history for previous 24 hours

 ConditionsComfort  
Time TempWeatherWind HumidityBarometerVisibility
12:30 PM
Fri, Jul 3
91 °FSunny.3 mph41%30.21 "Hg10 mi
12:00 PM91 °FSunny.2 mph38%30.24 "Hg10 mi
11:30 AM90 °FSunny.3 mph41%30.24 "Hg10 mi
11:00 AM88 °FSunny.3 mph40%30.24 "Hg10 mi
10:30 AM86 °FPassing clouds.5 mph43%30.24 "HgN/A
10:00 AM84 °FPassing clouds.5 mph51%30.24 "HgN/A
9:30 AM82 °FPassing clouds.6 mph55%30.24 "HgN/A
9:00 AM81 °FSunny.7 mph58%30.24 "Hg10 mi
8:30 AM79 °FPassing clouds.6 mph65%30.24 "HgN/A
8:00 AM77 °FPassing clouds.5 mph69%30.24 "HgN/A
7:30 AM75 °FPassing clouds.5 mph74%30.24 "HgN/A
7:00 AM72 °FSunny.5 mph78%30.24 "Hg10 mi
6:30 AM72 °FClear.5 mph78%30.21 "Hg10 mi
6:00 AM70 °FClear.3 mph83%30.21 "Hg10 mi
5:30 AM70 °FClear.2 mph83%30.21 "Hg10 mi
5:00 AM72 °FPassing clouds.5 mph78%30.21 "HgN/A
4:30 AM70 °FClear.5 mph83%30.21 "Hg10 mi
4:00 AM72 °FClear.3 mph78%30.21 "Hg10 mi
3:30 AM72 °FClear.3 mph78%30.21 "Hg10 mi
3:00 AM73 °FClear.2 mph74%30.21 "Hg10 mi
2:30 AM75 °FPassing clouds.5 mph74%30.18 "HgN/A
2:00 AM75 °FClear.2 mph74%30.18 "Hg10 mi
1:30 AM75 °FClear.2 mph74%30.18 "Hg10 mi
1:00 AM77 °FClear.1 mph65%30.18 "Hg10 mi
12:30 AM77 °FClear.1 mph69%30.18 "Hg10 mi
11:30 PM
Thu, Jul 2
81 °FClear.3 mph58%30.18 "Hg10 mi
11:00 PM81 °FClear.6 mph58%30.15 "Hg10 mi
10:30 PM82 °FPassing clouds.5 mph55%30.15 "HgN/A
10:00 PM84 °FSunny.7 mph51%30.15 "Hg10 mi
9:30 PM84 °FPassing clouds.8 mph55%30.12 "HgN/A
9:00 PM84 °FSunny.3 mph70%30.12 "Hg10 mi
8:30 PM91 °FSunny.No wind52%30.09 "Hg10 mi
8:00 PM93 °FPassing clouds.3 mph41%30.09 "HgN/A
7:30 PM93 °FPassing clouds.6 mph41%30.09 "HgN/A
7:00 PM95 °FPassing clouds.7 mph36%30.09 "HgN/A
6:30 PM95 °FPassing clouds.7 mph36%30.09 "HgN/A
6:00 PM97 °FPassing clouds.7 mph32%30.09 "HgN/A
5:30 PM97 °FPassing clouds.8 mph32%30.09 "HgN/A
5:00 PM95 °FScattered clouds.7 mph34%30.09 "HgN/A
4:30 PM95 °FPartly sunny.8 mph34%30.09 "HgN/A
4:00 PM97 °FScattered clouds.9 mph34%30.09 "HgN/A
3:30 PM97 °FPassing clouds.7 mph37%30.09 "HgN/A
3:00 PM95 °FPassing clouds.8 mph39%30.09 "HgN/A
2:30 PM95 °FPassing clouds.8 mph39%30.09 "HgN/A
2:00 PM95 °FPassing clouds.6 mph39%30.09 "HgN/A
1:30 PM93 °FSunny.5 mph39%30.09 "Hg10 mi
1:00 PM91 °FPassing clouds.7 mph41%30.12 "HgN/A
Weather by CustomWeather, © 2015

See weather overviewHow to use our weather pages